IRIDIUM 106 1 41917U 17003A 26119.46683211 .00000051 00000+0 11050-4 0 9999 2 41917 86.3927 108.9276 0002607 83.3763 276.7729 14.34217691486227 IRIDIUM 103 1 41918U 17003B 26119.52391428 .00000020 00000+0 87579-7 0 9991 2 41918 86.3930 108.8038 0002231 96.0600 264.0850 14.34217422486251 IRIDIUM 109 1 41919U 17003C 26119.46048830 .00000014 00000+0 -20398-5 0 9999 2 41919 86.3931 108.8890 0002180 90.3845 269.7601 14.34217375486219 IRIDIUM 102 1 41920U 17003D 26119.49854419 .00000033 00000+0 48585-5 0 9990 2 41920 86.3926 108.7976 0002259 87.2992 272.8462 14.34217745486305 IRIDIUM 105 1 41921U 17003E 26119.38814940 .00000168 00000+0 52874-4 0 9998 2 41921 86.3946 77.2699 0002294 87.3579 272.7880 14.34398831488144 IRIDIUM 104 1 41922U 17003F 26119.51122860 .00000007 00000+0 -43911-5 0 9993 2 41922 86.3930 108.8342 0002100 96.0467 264.0969 14.34217375486292 IRIDIUM 114 1 41923U 17003G 26119.44780360 .00000056 00000+0 12914-4 0 9992 2 41923 86.3928 108.8441 0002267 93.5036 266.6419 14.34217911486269 IRIDIUM 108 1 41924U 17003H 26119.40632506 .00000008 00000+0 -40572-5 0 9997 2 41924 86.3942 77.1551 0002107 82.7798 277.3638 14.34217397488110 IRIDIUM 112 1 41925U 17003J 26119.50488679 .00000070 00000+0 17833-4 0 9990 2 41925 86.3922 108.6644 0002180 91.3212 268.8234 14.34218004486290 IRIDIUM 111 1 41926U 17003K 26119.49220117 .00000093 00000+0 26220-4 0 9995 2 41926 86.3924 108.7392 0002333 90.7611 269.3852 14.34218299486276 IRIDIUM 113 1 42803U 17039A 26119.54193453 .00000042 00000+0 79665-5 0 9993 2 42803 86.3988 342.5195 0002024 92.1944 267.9483 14.34217799464210 IRIDIUM 123 1 42804U 17039B 26119.44387700 .00000073 00000+0 19031-4 0 9997 2 42804 86.4016 14.0077 0002352 86.2706 273.8759 14.34217612462964 IRIDIUM 120 1 42805U 17039C 26119.53559241 -.00000033 00000+0 -18862-4 0 9998 2 42805 86.3973 342.3107 0002100 82.2485 277.8949 14.34217238464206 IRIDIUM 115 1 42806U 17039D 26119.17099996 .00000283 00000+0 78016-4 0 9997 2 42806 86.4517 342.5854 0002479 85.5001 274.6483 14.43277574467190 IRIDIUM 118 1 42807U 17039E 26119.26628410 .00000066 00000+0 16660-4 0 9993 2 42807 86.4014 14.0800 0002179 86.1850 273.9595 14.34217931462935 IRIDIUM 117 1 42808U 17039F 26119.42484889 .00000076 00000+0 20089-4 0 9993 2 42808 86.4013 13.9718 0002296 87.3216 272.8242 14.34217132462985 IRIDIUM 126 1 42809U 17039G 26119.45021936 .00000017 00000+0 -10214-5 0 9993 2 42809 86.4009 14.0115 0002113 89.0468 271.0970 14.34217648462969 IRIDIUM 124 1 42810U 17039H 26119.52083727 .00000120 00000+0 29626-4 0 9999 2 42810 86.4455 310.7230 0002223 89.2132 270.9323 14.43281835468091 IRIDIUM 128 1 42811U 17039J 26119.23165191 .00000057 00000+0 13396-4 0 9990 2 42811 86.3991 45.6082 0002372 80.4261 279.7202 14.34217907462968 IRIDIUM 121 1 42812U 17039K 26119.46926203 .00000267 00000+0 88174-4 0 9994 2 42812 86.4014 14.0311 0002203 82.2276 277.9170 14.34221025462847 IRIDIUM 133 1 42955U 17061A 26119.19359603 .00000044 00000+0 87113-5 0 9997 2 42955 86.3991 45.7406 0002260 84.9449 275.2005 14.34217944447754 IRIDIUM 100 1 42956U 17061B 26119.25702199 .00000069 00000+0 17406-4 0 9991 2 42956 86.3991 45.6338 0002252 84.1688 275.9764 14.34217549447767 IRIDIUM 122 1 42957U 17061C 26119.50438345 .00000021 00000+0 55315-6 0 9990 2 42957 86.3990 45.5305 0002280 87.0997 273.0460 14.34217716447809 IRIDIUM 129 1 42958U 17061D 26119.32044715 .00000044 00000+0 87063-5 0 9994 2 42958 86.3992 45.6739 0001946 88.1886 271.9533 14.34217928447792 IRIDIUM 119 1 42959U 17061E 26119.49804102 .00000017 00000+0 -11004-5 0 9990 2 42959 86.3991 45.5953 0002233 88.4779 271.6673 14.34217616447834 IRIDIUM 107 1 42960U 17061F 26119.51706925 -.00000037 00000+0 -20249-4 0 9992 2 42960 86.3989 45.6086 0002378 86.5702 273.5766 14.34217373447841 IRIDIUM 132 1 42961U 17061G 26119.24433747 .00000003 00000+0 -59359-5 0 9999 2 42961 86.3989 45.7023 0002166 84.9303 275.2140 14.34217467447803 IRIDIUM 136 1 42962U 17061H 26119.27605027 .00000024 00000+0 16237-5 0 9995 2 42962 86.3992 45.6953 0002279 87.4078 272.7379 14.34217744447827 IRIDIUM 139 1 42963U 17061J 26119.49169834 -.00000001 00000+0 -72960-5 0 9993 2 42963 86.3989 45.6665 0002204 82.9454 277.1992 14.34217476447866 IRIDIUM 125 1 42964U 17061K 26119.33947644 .00000012 00000+0 -28017-5 0 9995 2 42964 86.3992 45.7903 0002354 96.9765 263.1698 14.34217565447859 IRIDIUM 135 1 43070U 17083A 26119.52290697 -.00000027 00000+0 -16562-4 0 9996 2 43070 86.3977 342.3669 0002041 86.4447 273.6982 14.34217406437170 IRIDIUM 138 1 43071U 17083B 26119.54827726 .00000037 00000+0 62213-5 0 9992 2 43071 86.3994 342.0448 0002053 95.3839 264.7591 14.34217748437164 IRIDIUM 116 1 43072U 17083C 26119.37704223 .00000221 00000+0 71943-4 0 9994 2 43072 86.3982 342.4149 0002338 79.4364 280.7095 14.34211860437173 IRIDIUM 130 1 43073U 17083D 26119.55462067 .00000031 00000+0 40137-5 0 9993 2 43073 86.3990 342.6110 0002405 84.6995 275.4475 14.34217687437149 IRIDIUM 151 1 43074U 17083E 26119.52924957 .00000007 00000+0 -46823-5 0 9994 2 43074 86.3977 342.4075 0002012 84.1496 275.9929 14.34217580437161 IRIDIUM 134 1 43075U 17083F 26119.35799999 .00000062 00000+0 14974-4 0 9993 2 43075 86.3986 342.4868 0002257 86.3147 273.8307 14.34217755437105 IRIDIUM 137 1 43076U 17083G 26119.37068447 -.00000044 00000+0 -22922-4 0 9997 2 43076 86.3980 342.5729 0001926 71.9627 288.1778 14.34217167437177 IRIDIUM 141 1 43077U 17083H 26119.36434083 .00000434 00000+0 14774-3 0 9996 2 43077 86.3981 342.4096 0002091 87.6325 272.5110 14.34216468437178 IRIDIUM 153 1 43078U 17083J 26119.52582608 .00000004 00000+0 -54657-5 0 9992 2 43078 86.3932 310.8307 0002057 95.5249 264.6181 14.34217578438303 IRIDIUM 131 1 43079U 17083K 26119.35165691 .00000066 00000+0 16327-4 0 9991 2 43079 86.3988 342.5974 0002071 86.7073 273.4359 14.34217849437103 IRIDIUM 144 1 43249U 18030A 26119.53217225 .00000081 00000+0 21738-4 0 9993 2 43249 86.3931 310.7585 0002206 86.0053 274.1395 14.34217763423160 IRIDIUM 149 1 43250U 18030B 26119.53851448 .00000074 00000+0 19456-4 0 9992 2 43250 86.3930 310.7234 0002077 91.0051 269.1383 14.34217824423183 IRIDIUM 157 1 43251U 18030C 26119.55753932 .00000081 00000+0 21722-4 0 9991 2 43251 86.3932 310.7676 0002162 89.2529 270.8915 14.34218234423164 IRIDIUM 140 1 43252U 18030D 26119.50680101 .00000084 00000+0 22982-4 0 9996 2 43252 86.3933 310.8015 0002219 88.8241 271.3209 14.34218014423217 IRIDIUM 145 1 43253U 18030E 26119.49411389 .00000071 00000+0 18401-4 0 9992 2 43253 86.3932 310.7791 0002316 81.7875 278.3584 14.34218130423144 IRIDIUM 146 1 43254U 18030F 26119.54485426 .00000071 00000+0 18284-4 0 9991 2 43254 86.3932 310.7703 0002203 86.5833 273.5615 14.34218163423160 IRIDIUM 148 1 43255U 18030G 26119.51316014 .00000103 00000+0 29850-4 0 9992 2 43255 86.3933 310.8259 0002054 86.7144 273.4287 14.34216244423195 IRIDIUM 142 1 43256U 18030H 26119.55121684 .00000078 00000+0 20725-4 0 9997 2 43256 86.3930 310.7008 0002259 83.9617 276.1837 14.34215540423161 IRIDIUM 150 1 43257U 18030J 26119.51948310 .00000029 00000+0 34466-5 0 9991 2 43257 86.3931 310.8286 0002059 88.2238 271.9193 14.34217799423185 IRIDIUM 143 1 43258U 18030K 26119.50045661 -.00000044 00000+0 -22610-4 0 9994 2 43258 86.3934 310.9273 0002123 85.8267 274.3172 14.34217123423111 IRIDIUM 161 1 43478U 18047C 26119.49874288 .00000042 00000+0 65343-5 0 9996 2 43478 86.4446 108.8324 0002074 91.9267 268.2171 14.43277820418113 IRIDIUM 152 1 43479U 18047D 26119.47317373 .00000057 00000+0 13148-4 0 9993 2 43479 86.3921 108.7037 0002217 91.6932 268.4518 14.34217956415507 IRIDIUM 147 1 43480U 18047E 26119.47951655 .00000032 00000+0 44590-5 0 9991 2 43480 86.3923 108.7055 0002313 86.2357 273.9103 14.34217703415500 IRIDIUM 110 1 43481U 18047F 26119.48585856 -.00000043 00000+0 -22395-4 0 9991 2 43481 86.3930 108.7936 0001883 96.3809 263.7602 14.34216942415495 IRIDIUM 162 1 43482U 18047G 26119.49243823 .00000179 00000+0 47154-4 0 9996 2 43482 86.4446 108.7266 0002403 90.9885 269.1591 14.43282336418106 IRIDIUM 160 1 43569U 18061A 26119.43169397 .00000137 00000+0 41940-4 0 9996 2 43569 86.3946 77.1796 0002129 86.4640 273.6799 14.34218505406381 IRIDIUM 166 1 43570U 18061B 26119.38731441 .00000271 00000+0 89558-4 0 9993 2 43570 86.3942 77.1491 0002346 83.5892 276.5571 14.34219563406407 IRIDIUM 158 1 43571U 18061C 26119.42535285 .00000013 00000+0 -22732-5 0 9994 2 43571 86.3943 77.1432 0002309 88.9969 271.1492 14.34217669406371 IRIDIUM 165 1 43572U 18061D 26119.38095480 .00000010 00000+0 -36538-5 0 9994 2 43572 86.3945 77.2075 0002197 82.8212 277.3234 14.34217429406395 IRIDIUM 155 1 43573U 18061E 26119.34289957 .00000018 00000+0 -66947-6 0 9991 2 43573 86.3941 77.0945 0002389 87.2367 272.9102 14.34217489406356 IRIDIUM 154 1 43574U 18061F 26119.39363976 .00000047 00000+0 98711-5 0 9995 2 43574 86.3944 77.2046 0002291 82.4405 277.7051 14.34217739406417 IRIDIUM 163 1 43575U 18061G 26119.23507259 .00000175 00000+0 55394-4 0 9994 2 43575 86.3943 77.1877 0002229 88.9737 271.1714 14.34219223406366 IRIDIUM 156 1 43576U 18061H 26119.41901087 .00000006 00000+0 -48231-5 0 9999 2 43576 86.3942 77.1183 0002320 85.8777 274.2684 14.34217392406385 IRIDIUM 164 1 43577U 18061J 26119.39998257 -.00000027 00000+0 -16876-4 0 9995 2 43577 86.3943 77.1655 0002230 81.5730 278.5718 14.34217188406426 IRIDIUM 159 1 43578U 18061K 26119.43803806 -.00000041 00000+0 -21703-4 0 9997 2 43578 86.3941 77.0877 0002038 87.3681 272.7748 14.34217190406393 IRIDIUM 180 1 43922U 19002A 26119.22822759 .00000163 00000+0 51242-4 0 9995 2 43922 86.4016 14.0582 0002103 86.4914 273.6523 14.34217152381971 IRIDIUM 176 1 43923U 19002B 26119.22223070 .00000811 00000+0 12467-3 0 9992 2 43923 86.6149 14.0102 0002384 83.7784 276.3705 14.72244505392041 IRIDIUM 168 1 43924U 19002C 26119.22189269 .00000261 00000+0 86162-4 0 9997 2 43924 86.4015 14.1368 0002151 84.8337 275.3104 14.34221448381954 IRIDIUM 173 1 43925U 19002D 26119.20920058 .00000060 00000+0 14474-4 0 9999 2 43925 86.4012 14.0331 0002223 88.2039 271.9412 14.34217946381938 IRIDIUM 169 1 43926U 19002E 26119.21542496 .00000329 00000+0 10106-3 0 9992 2 43926 86.4246 45.6575 0002848 91.0785 269.0740 14.38610114383180 IRIDIUM 172 1 43927U 19002F 26118.99354566 .00000245 00000+0 80412-4 0 9991 2 43927 86.4014 14.1309 0002084 85.5306 274.6127 14.34220675381914 IRIDIUM 175 1 43928U 19002G 26119.26978139 .00000113 00000+0 27354-4 0 9991 2 43928 86.4486 310.9837 0004625 50.8732 309.2880 14.43590814391920 IRIDIUM 171 1 43929U 19002H 26119.25359923 -.00000068 00000+0 -31522-4 0 9998 2 43929 86.4016 14.3229 0002212 82.2233 277.9214 14.34217436381944 IRIDIUM 170 1 43930U 19002J 26119.22841742 .00000727 00000+0 11133-3 0 9997 2 43930 86.6133 14.0116 0002187 84.6279 275.5188 14.72257492392053 IRIDIUM 167 1 43931U 19002K 26119.24725705 .00000002 00000+0 -64767-5 0 9990 2 43931 86.4007 14.0468 0002376 80.9972 279.1492 14.34217525381946 IRIDIUM 181 1 56726U 23068S 26119.36789278 .00000299 00000+0 82911-4 0 9998 2 56726 86.4476 77.1943 0002134 81.4770 278.6673 14.43308681155391 IRIDIUM 177 1 56727U 23068T 26119.37909785 .00001081 00000+0 13870-3 0 9994 2 56727 86.1990 351.9755 0002314 92.7862 267.3624 14.80241291159143 IRIDIUM 174 1 56728U 23068U 26119.21605883 .00000826 00000+0 12717-3 0 9995 2 56728 86.6142 14.1590 0002360 89.5898 270.5589 14.72249504158812 IRIDIUM 178 1 56729U 23068V 26119.50332285 .00002017 00000+0 26208-3 0 9995 2 56729 86.6562 45.6960 0002333 78.8790 281.2693 14.80230672159160 IRIDIUM 179 1 56730U 23068W 26119.22754345 .00000962 00000+0 12322-3 0 9990 2 56730 86.6782 54.6463 0002788 81.4107 278.7430 14.80226787159128